#�ϑ�����,���ϕ���,���ϕ���,�ő啗��,�ő啗����������,�ő�u�ԕ���,�ő�u�ԕ�����������
#(�N����),(m/s)   ,(16����),(m/s)   ,(16����)        ,(m/s)       ,(16����)            
2014/5/12 0:01,2.1,3,2.1,3,3.8,3
2014/5/12 0:02,2,3,2.1,3,3.5,3
2014/5/12 0:03,2,3,2,3,3.1,3
2014/5/12 0:04,2.2,3,2.2,3,4.1,3
2014/5/12 0:05,2.1,3,2.2,3,2.5,4
2014/5/12 0:06,2,3,2.1,3,2,3
2014/5/12 0:07,1.9,3,2,3,1.6,2
2014/5/12 0:08,1.9,3,1.9,3,2.2,2
2014/5/12 0:09,1.8,3,1.8,3,2.7,3
2014/5/12 0:10,1.8,3,1.8,3,3,3
2014/5/12 0:11,1.7,3,1.8,3,4.2,4
2014/5/12 0:12,1.8,3,1.8,3,4.9,3
2014/5/12 0:13,1.8,3,1.8,3,3.3,4
2014/5/12 0:14,1.8,3,1.8,3,4.7,3
2014/5/12 0:15,1.9,3,1.9,3,3.6,3
2014/5/12 0:16,2,3,2,3,3.1,2
2014/5/12 0:17,2.2,3,2.2,3,5.5,4
2014/5/12 0:18,2.5,3,2.5,3,6.4,4
2014/5/12 0:19,2.6,3,2.6,3,4.8,5
2014/5/12 0:20,2.6,3,2.6,3,3.8,3
2014/5/12 0:21,2.7,3,2.7,3,3.7,3
2014/5/12 0:22,2.6,3,2.7,3,3.9,4
2014/5/12 0:23,2.7,3,2.7,3,4.4,3
2014/5/12 0:24,2.8,3,2.8,3,4.5,4
2014/5/12 0:25,2.8,3,2.8,3,4.2,4
2014/5/12 0:26,2.9,3,2.9,3,4.7,3
2014/5/12 0:27,3,3,3,3,4.2,3
2014/5/12 0:28,3,3,3,3,5.4,4
2014/5/12 0:29,3,3,3,3,5,4
2014/5/12 0:30,3.3,3,3.3,3,6.5,3
2014/5/12 0:31,3.5,3,3.5,3,6.4,4
2014/5/12 0:32,3.5,3,3.5,3,5.4,3
2014/5/12 0:33,3.6,3,3.6,3,4.7,3
2014/5/12 0:34,3.5,3,3.6,3,4.2,3
2014/5/12 0:35,3.5,3,3.6,3,5,3
2014/5/12 0:36,3.5,3,3.6,3,4.5,3
2014/5/12 0:37,3.4,3,3.4,3,3.7,1
2014/5/12 0:38,3.3,3,3.4,3,4.1,3
2014/5/12 0:39,3.2,3,3.3,3,3.8,4
2014/5/12 0:40,3,3,3.2,3,3.8,2
2014/5/12 0:41,2.8,3,3,3,4.1,3
2014/5/12 0:42,2.8,3,2.8,3,4.3,4
2014/5/12 0:43,2.8,3,2.8,3,5.1,3
2014/5/12 0:44,2.8,3,2.9,3,4.5,3
2014/5/12 0:45,2.9,3,2.9,3,4.9,3
2014/5/12 0:46,3,3,3,3,5.7,3
2014/5/12 0:47,3.1,3,3.1,3,5.4,4
2014/5/12 0:48,3.1,3,3.1,3,4.4,4
2014/5/12 0:49,3.1,3,3.1,3,4.1,2
2014/5/12 0:50,3.1,3,3.1,3,3.8,3
2014/5/12 0:51,3.1,3,3.1,3,4.8,4
2014/5/12 0:52,3.1,3,3.1,3,4.2,3
2014/5/12 0:53,3,3,3.1,3,4.3,2
2014/5/12 0:54,3.1,3,3.1,3,5.1,4
2014/5/12 0:55,3.1,3,3.1,3,4.5,3
2014/5/12 0:56,3.1,3,3.1,3,6,4
2014/5/12 0:57,3,3,3.1,3,4.9,3
2014/5/12 0:58,3,3,3,3,4.7,4
2014/5/12 0:59,3,4,3,3,4.3,4
2014/5/12 1:00,3.1,4,3.1,3,5.2,3
2014/5/12 1:01,3.2,4,3.2,4,4.5,3
2014/5/12 1:02,3.3,4,3.3,4,5.4,5
2014/5/12 1:03,3.2,4,3.2,4,4.8,4
2014/5/12 1:04,3.2,4,3.2,4,5.5,4
2014/5/12 1:05,3.2,4,3.2,4,4.4,4
2014/5/12 1:06,3.1,4,3.2,4,4.5,4
2014/5/12 1:07,3,3,3.1,4,3.1,4
2014/5/12 1:08,2.9,3,3,4,4.4,3
2014/5/12 1:09,3,3,3,4,4.9,3
2014/5/12 1:10,2.9,3,3,4,4.8,6
2014/5/12 1:11,3,3,3,4,6.8,4
2014/5/12 1:12,3.1,3,3.1,4,6,4
2014/5/12 1:13,3,3,3.1,4,5,3
2014/5/12 1:14,3,3,3,4,4.4,4
2014/5/12 1:15,3.1,3,3.1,4,6,3
2014/5/12 1:16,3.2,3,3.2,3,4.8,5
2014/5/12 1:17,3.2,3,3.2,3,4.1,3
2014/5/12 1:18,3.4,4,3.4,4,5.4,5
2014/5/12 1:19,3.4,4,3.4,4,5.2,5
2014/5/12 1:20,3.3,4,3.4,4,3.8,5
2014/5/12 1:21,3.3,4,3.3,4,4.4,3
2014/5/12 1:22,3.1,4,3.2,4,5,4
2014/5/12 1:23,3.2,4,3.2,4,4.5,3
2014/5/12 1:24,3.3,4,3.3,4,5.5,5
2014/5/12 1:25,3.2,4,3.3,4,4.5,4
2014/5/12 1:26,3.1,4,3.2,4,5.4,4
2014/5/12 1:27,3.3,4,3.3,4,5.7,5
2014/5/12 1:28,3.2,4,3.3,4,4.5,4
2014/5/12 1:29,3.2,4,3.2,4,6.1,4
2014/5/12 1:30,3.3,4,3.3,4,5.6,4
2014/5/12 1:31,3.3,4,3.4,4,5.5,2
2014/5/12 1:32,3.3,4,3.4,4,4.4,4
2014/5/12 1:33,3.2,4,3.3,4,3.6,3
2014/5/12 1:34,3,4,3.2,4,4.1,5
2014/5/12 1:35,3,4,3,4,3.9,3
2014/5/12 1:36,3.1,4,3.1,4,4.4,2
2014/5/12 1:37,2.9,3,3,4,3.7,3
2014/5/12 1:38,2.9,3,2.9,4,5.6,5
2014/5/12 1:39,2.9,3,2.9,4,6.4,4
2014/5/12 1:40,2.8,4,2.9,4,4.1,4
2014/5/12 1:41,2.9,4,2.9,4,6.8,4
2014/5/12 1:42,2.9,4,2.9,4,5.7,4
2014/5/12 1:43,3,4,3,4,4.2,3
2014/5/12 1:44,3.1,4,3.1,4,5.2,4
2014/5/12 1:45,3.2,4,3.2,4,4.7,5
2014/5/12 1:46,3.1,4,3.1,4,3.6,4
2014/5/12 1:47,3.1,4,3.1,4,4.2,4
2014/5/12 1:48,3.1,4,3.1,4,3.8,4
2014/5/12 1:49,3.1,4,3.1,4,4.9,4
2014/5/12 1:50,3.1,4,3.1,4,4.3,4
2014/5/12 1:51,2.9,4,3.1,4,4.7,3
2014/5/12 1:52,2.9,4,2.9,4,4.5,5
2014/5/12 1:53,3,4,3,4,5,4
2014/5/12 1:54,3.2,4,3.2,4,6.7,5
2014/5/12 1:55,3.3,4,3.3,4,6.8,5
2014/5/12 1:56,3.4,4,3.4,4,5.6,5
2014/5/12 1:57,3.4,4,3.5,4,5.6,5
2014/5/12 1:58,3.5,4,3.5,4,4.8,3
2014/5/12 1:59,3.5,4,3.5,4,5.1,4
2014/5/12 2:00,3.5,4,3.5,4,5.7,5
2014/5/12 2:01,3.5,4,3.6,4,4.4,4
2014/5/12 2:02,3.5,4,3.5,4,5,5
2014/5/12 2:03,3.4,4,3.5,4,4.4,5
2014/5/12 2:04,3.3,4,3.4,4,4.1,3
2014/5/12 2:05,3.2,4,3.2,4,6.1,4
2014/5/12 2:06,3.2,4,3.2,4,5.8,6
2014/5/12 2:07,3,4,3.2,4,4.2,5
2014/5/12 2:08,3,4,3,4,4.4,5
2014/5/12 2:09,3.2,4,3.2,4,6.9,4
2014/5/12 2:10,3.2,4,3.2,4,6.2,4
2014/5/12 2:11,3.3,4,3.3,4,7.1,3
2014/5/12 2:12,3.4,4,3.4,4,6.8,5
2014/5/12 2:13,3.5,4,3.5,4,6.7,4
2014/5/12 2:14,3.5,4,3.6,4,4.3,6
2014/5/12 2:15,3.4,4,3.5,4,4.8,5
2014/5/12 2:16,3.4,4,3.4,4,4.3,5
2014/5/12 2:17,3.3,4,3.3,4,3,5
2014/5/12 2:18,3.3,4,3.3,4,4.1,4
2014/5/12 2:19,3.1,4,3.2,4,4.4,5
2014/5/12 2:20,2.9,4,3.1,4,3.6,3
2014/5/12 2:21,2.9,4,2.9,4,5,3
2014/5/12 2:22,2.9,4,2.9,4,5,6
2014/5/12 2:23,2.8,4,2.9,4,5.8,5
2014/5/12 2:24,2.9,4,2.9,4,6,5
2014/5/12 2:25,2.9,4,2.9,4,4.7,5
2014/5/12 2:26,2.9,4,2.9,4,4.8,4
2014/5/12 2:27,3,4,3,4,3.9,5
2014/5/12 2:28,3,4,3.1,4,3.7,4
2014/5/12 2:29,3,4,3,4,3.8,4
2014/5/12 2:30,3,4,3,4,3.7,3
2014/5/12 2:31,2.9,4,3,4,6.1,4
2014/5/12 2:32,2.9,4,3,4,7.5,5
2014/5/12 2:33,2.9,4,3,4,5,4
2014/5/12 2:34,3,4,3,4,6.5,5
2014/5/12 2:35,3,4,3,4,3.7,3
2014/5/12 2:36,3.1,4,3.1,4,8.1,4
2014/5/12 2:37,3.2,4,3.2,4,6.2,5
2014/5/12 2:38,3.3,4,3.3,4,5.1,3
2014/5/12 2:39,3.3,4,3.4,4,5.6,3
2014/5/12 2:40,3.5,4,3.5,4,4.9,3
2014/5/12 2:41,3.6,4,3.6,4,6,4
2014/5/12 2:42,3.5,4,3.6,4,6.2,4
2014/5/12 2:43,3.4,4,3.5,4,4.3,5
2014/5/12 2:44,3.3,4,3.4,4,4.9,4
2014/5/12 2:45,3.4,4,3.4,4,6.1,3
2014/5/12 2:46,3.3,4,3.4,4,5.1,5
2014/5/12 2:47,3.2,4,3.3,4,3.6,3
2014/5/12 2:48,3.2,4,3.2,4,5.5,4
2014/5/12 2:49,3.1,4,3.2,4,4.8,5
2014/5/12 2:50,3.1,4,3.1,4,4.9,5
2014/5/12 2:51,3,4,3.1,4,4.4,5
2014/5/12 2:52,3,4,3,4,4.9,6
2014/5/12 2:53,3,4,3,4,4.7,4
2014/5/12 2:54,2.9,4,3,4,3.9,4
2014/5/12 2:55,2.8,4,2.9,4,3,3
2014/5/12 2:56,2.7,4,2.8,4,4.1,2
2014/5/12 2:57,2.9,4,2.9,4,5,3
2014/5/12 2:58,3,4,3,4,5.6,4
2014/5/12 2:59,3.2,4,3.2,4,6,4
2014/5/12 3:00,3.2,4,3.2,4,5.1,5
2014/5/12 3:01,3.2,4,3.2,4,4.9,5
2014/5/12 3:02,3.1,4,3.2,4,4.4,4
2014/5/12 3:03,3,4,3.1,4,2.9,2
2014/5/12 3:04,3.1,4,3.1,4,4.7,4
2014/5/12 3:05,3.2,4,3.2,4,5.5,6
2014/5/12 3:06,3.2,5,3.3,5,5.2,6
2014/5/12 3:07,3.2,5,3.3,5,5.1,6
2014/5/12 3:08,3,5,3.2,5,3.7,7
2014/5/12 3:09,2.8,5,3,5,4.1,5
2014/5/12 3:10,2.9,5,2.9,5,7.8,5
2014/5/12 3:11,2.8,5,2.9,5,6.3,6
2014/5/12 3:12,2.8,5,2.8,5,3.3,5
2014/5/12 3:13,2.9,5,2.9,5,4.1,5
2014/5/12 3:14,2.9,5,2.9,5,4.4,6
2014/5/12 3:15,3,5,3,5,7.4,5
2014/5/12 3:16,3.1,5,3.1,5,4.9,5
2014/5/12 3:17,3.1,5,3.1,5,4.7,4
2014/5/12 3:18,3.1,5,3.1,5,3.3,5
2014/5/12 3:19,3.2,5,3.2,5,4.3,5
2014/5/12 3:20,3,5,3.2,5,3.6,5
2014/5/12 3:21,3,5,3,5,3.9,6
2014/5/12 3:22,3.1,5,3.1,5,6.1,6
2014/5/12 3:23,3.4,5,3.4,5,8.4,5
2014/5/12 3:24,3.5,5,3.5,5,7.2,5
2014/5/12 3:25,3.4,5,3.6,5,4.4,6
2014/5/12 3:26,3.5,5,3.5,5,8.2,6
2014/5/12 3:27,3.6,5,3.6,5,6.3,6
2014/5/12 3:28,3.8,6,3.8,6,5.8,6
2014/5/12 3:29,3.7,6,3.8,6,4.2,5
2014/5/12 3:30,3.7,5,3.7,6,4.2,5
2014/5/12 3:31,3.8,6,3.8,6,5.4,5
2014/5/12 3:32,3.7,6,3.8,6,3.8,5
2014/5/12 3:33,3.6,6,3.7,6,6.4,6
2014/5/12 3:34,3.5,6,3.6,6,5.8,7
2014/5/12 3:35,3.6,6,3.6,6,7,5
2014/5/12 3:36,3.4,6,3.6,6,6.7,6
2014/5/12 3:37,3.2,6,3.4,6,4.5,5
2014/5/12 3:38,3.4,5,3.4,6,7.5,5
2014/5/12 3:39,3.5,5,3.5,6,5.5,7
2014/5/12 3:40,3.6,5,3.6,6,4.1,4
2014/5/12 3:41,3.6,5,3.6,6,6.9,6
2014/5/12 3:42,3.5,5,3.6,6,3.5,5
2014/5/12 3:43,3.4,5,3.5,6,5.8,5
2014/5/12 3:44,3.5,5,3.5,6,6.2,7
2014/5/12 3:45,3.4,5,3.5,6,4.4,4
2014/5/12 3:46,3.3,5,3.4,5,4.4,6
2014/5/12 3:47,3.5,5,3.5,5,6.3,6
2014/5/12 3:48,3.4,5,3.6,5,6.1,6
2014/5/12 3:49,3.2,5,3.3,5,3.6,6
2014/5/12 3:50,3.2,6,3.2,5,5.8,6
2014/5/12 3:51,3.1,6,3.2,5,3.9,5
2014/5/12 3:52,3.3,6,3.3,5,4.9,6
2014/5/12 3:53,3.2,6,3.3,5,5.4,6
2014/5/12 3:54,3.1,6,3.2,5,6,6
2014/5/12 3:55,3.3,6,3.3,5,5.1,6
2014/5/12 3:56,3.3,6,3.3,5,4.4,6
2014/5/12 3:57,3.2,6,3.3,5,4.7,6
2014/5/12 3:58,3,6,3.2,5,3.7,7
2014/5/12 3:59,3.2,6,3.2,6,7.2,7
2014/5/12 4:00,3.2,6,3.2,6,6.1,6
2014/5/12 4:01,3.3,6,3.3,6,4.8,6
2014/5/12 4:02,3.5,6,3.5,6,6.2,6
2014/5/12 4:03,3.6,6,3.6,6,5.5,5
2014/5/12 4:04,3.6,6,3.6,6,4.8,6
2014/5/12 4:05,3.4,6,3.5,6,4.1,6
2014/5/12 4:06,3.5,6,3.5,6,5.7,4
2014/5/12 4:07,3.6,6,3.6,6,7.1,5
2014/5/12 4:08,3.8,6,3.8,6,5.8,6
2014/5/12 4:09,3.5,6,3.7,6,3.7,7
2014/5/12 4:10,3.4,6,3.5,6,4.9,6
2014/5/12 4:11,3.4,6,3.4,6,4.8,6
2014/5/12 4:12,3.2,6,3.3,6,3.9,6
2014/5/12 4:13,3,6,3.1,6,3.9,7
2014/5/12 4:14,2.9,6,3,6,3.8,6
2014/5/12 4:15,3.1,6,3.1,6,7.7,7
2014/5/12 4:16,3.1,6,3.2,6,9.7,6
2014/5/12 4:17,3.1,6,3.2,6,7.6,6
2014/5/12 4:18,3.1,6,3.1,6,5.1,6
2014/5/12 4:19,3.3,6,3.3,6,5.6,5
2014/5/12 4:20,3.6,6,3.6,6,9.2,5
2014/5/12 4:21,3.8,6,3.8,6,7.8,7
2014/5/12 4:22,4.1,6,4.1,6,7.2,6
2014/5/12 4:23,4.2,6,4.2,6,5.5,5
2014/5/12 4:24,4.3,6,4.3,6,4.7,5
2014/5/12 4:25,4.1,6,4.3,6,3.5,4
2014/5/12 4:26,3.9,6,4,6,3.5,5
2014/5/12 4:27,3.8,6,3.8,6,5.8,5
2014/5/12 4:28,4.1,6,4.1,6,9.1,6
2014/5/12 4:29,4.1,6,4.1,6,5.7,5
2014/5/12 4:30,3.7,6,4,6,4.3,7
2014/5/12 4:31,3.5,6,3.7,6,5.2,6
2014/5/12 4:32,3.3,6,3.5,6,3.8,5
2014/5/12 4:33,3.2,6,3.3,6,8.1,6
2014/5/12 4:34,3.2,6,3.2,6,7.6,6
2014/5/12 4:35,3.2,6,3.2,6,6.8,7
2014/5/12 4:36,3.3,6,3.3,6,5.1,6
2014/5/12 4:37,3.1,6,3.3,6,4.3,6
2014/5/12 4:38,2.7,6,3.1,6,3.5,5
2014/5/12 4:39,2.6,6,2.7,6,3.3,6
2014/5/12 4:40,2.8,6,2.8,6,5.4,6
2014/5/12 4:41,2.8,6,2.8,6,5.1,5
2014/5/12 4:42,3,6,3,6,5.6,5
2014/5/12 4:43,3,6,3.1,6,5.8,5
2014/5/12 4:44,3,6,3.1,6,6.5,6
2014/5/12 4:45,3.2,6,3.2,6,5.7,7
2014/5/12 4:46,3.2,6,3.3,6,3.8,6
2014/5/12 4:47,3.3,6,3.3,6,4.1,6
2014/5/12 4:48,3.4,6,3.4,6,5.2,6
2014/5/12 4:49,3.5,6,3.5,6,4.7,5
2014/5/12 4:50,3.4,6,3.5,6,5.1,5
2014/5/12 4:51,3.4,6,3.5,6,5.1,5
2014/5/12 4:52,3.3,6,3.4,6,6,6
2014/5/12 4:53,3.2,6,3.3,6,5.5,7
2014/5/12 4:54,3.1,6,3.2,6,5.5,6
2014/5/12 4:55,2.9,5,3.1,6,3.5,4
2014/5/12 4:56,2.9,5,2.9,6,3.7,5
2014/5/12 4:57,2.9,5,2.9,6,6.1,5
2014/5/12 4:58,2.8,5,2.9,6,5.6,7
2014/5/12 4:59,2.8,5,2.8,6,4.2,5
2014/5/12 5:00,2.7,5,2.8,6,3.9,5
2014/5/12 5:01,2.7,5,2.7,6,5,6
2014/5/12 5:02,2.7,5,2.7,6,5.2,6
2014/5/12 5:03,2.7,5,2.8,6,5.1,6
2014/5/12 5:04,2.8,5,2.8,6,4.5,4
2014/5/12 5:05,2.8,5,2.8,5,3.9,5
2014/5/12 5:06,2.8,5,2.8,5,4.9,5
2014/5/12 5:07,2.9,5,2.9,5,5.5,4
2014/5/12 5:08,3,5,3,5,5.8,6
2014/5/12 5:09,3,5,3,5,5.4,6
2014/5/12 5:10,3.3,5,3.3,5,6.7,4
2014/5/12 5:11,3.5,5,3.5,5,7,6
2014/5/12 5:12,3.5,5,3.5,5,5.5,4
2014/5/12 5:13,3.4,5,3.5,5,5.8,7
2014/5/12 5:14,3.4,5,3.4,5,7.1,8
2014/5/12 5:15,3.4,6,3.4,5,4.7,5
2014/5/12 5:16,3.3,6,3.3,5,3.1,3
2014/5/12 5:17,3.2,6,3.2,5,3.5,4
2014/5/12 5:18,3,6,3.1,5,4.9,6
2014/5/12 5:19,3,5,3,5,6.1,6
2014/5/12 5:20,2.8,6,3,5,4.3,5
2014/5/12 5:21,2.7,6,2.8,5,4.5,5
2014/5/12 5:22,2.6,6,2.7,5,3.6,6
2014/5/12 5:23,2.5,6,2.6,5,3.5,4
2014/5/12 5:24,2.5,5,2.5,5,4.4,5
2014/5/12 5:25,2.6,5,2.6,6,4.9,6
2014/5/12 5:26,2.8,5,2.8,6,5,5
2014/5/12 5:27,2.8,5,2.8,6,4.7,4
2014/5/12 5:28,3,5,3,6,6.7,6
2014/5/12 5:29,2.9,5,3,6,4.5,4
2014/5/12 5:30,2.9,5,2.9,5,5.1,7
2014/5/12 5:31,2.9,5,2.9,5,4.7,7
2014/5/12 5:32,3,5,3,5,6.4,5
2014/5/12 5:33,3.2,5,3.2,5,6.1,5
2014/5/12 5:34,3.3,5,3.3,5,5.2,4
2014/5/12 5:35,3.4,5,3.4,5,5.2,5
2014/5/12 5:36,3.4,5,3.4,5,6,5
2014/5/12 5:37,3.5,5,3.5,5,4.8,4
2014/5/12 5:38,3.4,5,3.5,5,5.5,5
2014/5/12 5:39,3.5,5,3.5,5,4.5,6
2014/5/12 5:40,3.5,5,3.5,5,4.9,5
2014/5/12 5:41,3.6,5,3.6,5,6.9,7
2014/5/12 5:42,3.6,5,3.6,5,7.5,5
2014/5/12 5:43,3.6,5,3.7,5,5.7,5
2014/5/12 5:44,3.5,5,3.6,5,4.1,4
2014/5/12 5:45,3.4,5,3.5,5,4.5,7
2014/5/12 5:46,3.3,5,3.4,5,5.1,5
2014/5/12 5:47,3.3,5,3.4,5,5.4,4
2014/5/12 5:48,3.3,5,3.4,5,4.1,4
2014/5/12 5:49,3.3,5,3.3,5,5.8,5
2014/5/12 5:50,3.5,5,3.5,5,6.4,4
2014/5/12 5:51,3.5,5,3.5,5,5.2,5
2014/5/12 5:52,3.4,5,3.5,5,5.4,5
2014/5/12 5:53,3.4,5,3.4,5,4.8,5
2014/5/12 5:54,3.4,5,3.4,5,4.3,5
2014/5/12 5:55,3.5,5,3.5,5,4.3,6
2014/5/12 5:56,3.5,5,3.5,5,4.4,4
2014/5/12 5:57,3.5,5,3.5,5,6.9,6
2014/5/12 5:58,3.7,5,3.7,5,6.7,6
2014/5/12 5:59,3.8,5,3.8,5,6.8,5
2014/5/12 6:00,3.7,5,3.8,5,6.5,5
2014/5/12 6:01,3.7,5,3.7,5,4.8,5
2014/5/12 6:02,3.7,5,3.7,5,6.4,6
2014/5/12 6:03,3.7,5,3.7,5,5.5,6
2014/5/12 6:04,3.7,5,3.7,5,4.8,5
2014/5/12 6:05,3.7,5,3.7,5,5.5,5
2014/5/12 6:06,3.8,6,3.8,5,6.3,5
2014/5/12 6:07,3.8,6,3.8,5,6.7,6
2014/5/12 6:08,3.8,6,3.8,5,6.5,6
2014/5/12 6:09,3.8,6,3.9,6,8.4,5
2014/5/12 6:10,3.7,6,3.8,6,5.5,4
2014/5/12 6:11,3.7,6,3.7,6,7.4,6
2014/5/12 6:12,3.6,6,3.7,6,6.2,5
2014/5/12 6:13,3.7,6,3.7,6,7.9,7
2014/5/12 6:14,3.8,6,3.8,6,6.4,6
2014/5/12 6:15,4,6,4,6,6.2,6
2014/5/12 6:16,4,6,4,6,6.3,6
2014/5/12 6:17,3.8,6,4,6,5.7,7
2014/5/12 6:18,3.7,6,3.9,6,7,6
2014/5/12 6:19,3.5,6,3.8,6,6,6
2014/5/12 6:20,3.5,6,3.5,6,4.7,6
2014/5/12 6:21,3.5,6,3.5,6,6.2,5
2014/5/12 6:22,3.6,6,3.7,6,5.7,6
2014/5/12 6:23,3.5,6,3.6,6,5.2,6
2014/5/12 6:24,3.6,6,3.6,6,8.2,5
2014/5/12 6:25,3.5,6,3.6,6,6,6
2014/5/12 6:26,3.3,6,3.5,6,5,6
2014/5/12 6:27,3.4,6,3.4,6,5.6,5
2014/5/12 6:28,3.4,6,3.5,6,5.1,6
2014/5/12 6:29,3.8,6,3.8,6,7.6,6
2014/5/12 6:30,4,6,4,6,7.8,6
2014/5/12 6:31,4.2,6,4.2,6,8.2,7
2014/5/12 6:32,4.1,6,4.2,6,5.8,8
2014/5/12 6:33,4,6,4.1,6,5.5,9
2014/5/12 6:34,4,6,4.1,6,7.8,7
2014/5/12 6:35,3.9,6,4,6,4.9,9
2014/5/12 6:36,3.8,6,3.9,6,4.7,7
2014/5/12 6:37,3.7,6,3.8,6,5.2,6
2014/5/12 6:38,3.6,6,3.7,6,4.9,8
2014/5/12 6:39,3.4,7,3.6,6,5.1,7
2014/5/12 6:40,3.2,7,3.3,6,5.7,6
2014/5/12 6:41,2.8,7,3.2,6,3.3,7
2014/5/12 6:42,3,7,3,6,6.7,6
2014/5/12 6:43,3.1,7,3.1,6,5.8,9
2014/5/12 6:44,2.9,7,3,6,5.2,6
2014/5/12 6:45,3.1,7,3.1,6,6.8,7
2014/5/12 6:46,3.1,7,3.1,6,4.1,7
2014/5/12 6:47,3,7,3.1,6,3.5,8
2014/5/12 6:48,3.1,7,3.1,6,6.3,5
2014/5/12 6:49,3.4,7,3.4,7,9.1,6
2014/5/12 6:50,3.6,7,3.6,7,9,6
2014/5/12 6:51,3.8,7,3.8,7,6.9,5
2014/5/12 6:52,3.7,7,3.9,7,6.1,5
2014/5/12 6:53,3.8,6,3.8,7,7,5
2014/5/12 6:54,3.9,6,3.9,7,7.4,8
2014/5/12 6:55,3.7,6,3.9,7,8.1,8
2014/5/12 6:56,3.9,6,3.9,7,6.4,6
2014/5/12 6:57,3.9,6,4,6,7.1,6
2014/5/12 6:58,4,6,4,6,6.2,7
2014/5/12 6:59,3.8,6,4,6,5.1,7
2014/5/12 7:00,3.6,6,3.7,6,5.5,6
2014/5/12 7:01,3.5,6,3.6,6,5.8,5
2014/5/12 7:02,3.4,6,3.5,6,5.1,6
2014/5/12 7:03,3.3,6,3.4,6,5.5,8
2014/5/12 7:04,3.2,6,3.3,6,5,8
2014/5/12 7:05,3.3,6,3.3,6,6.8,8
2014/5/12 7:06,3.3,6,3.3,6,7,9
2014/5/12 7:07,3.2,7,3.3,6,6.3,9
2014/5/12 7:08,3,7,3.2,6,3.8,7
2014/5/12 7:09,2.9,7,3,6,4.8,7
2014/5/12 7:10,2.9,7,2.9,6,4.7,8
2014/5/12 7:11,2.9,7,2.9,6,6.8,5
2014/5/12 7:12,3.3,7,3.3,6,10,5
2014/5/12 7:13,3.6,7,3.6,7,8.5,5
2014/5/12 7:14,3.9,7,3.9,7,8.7,6
2014/5/12 7:15,3.9,7,3.9,7,7,7
2014/5/12 7:16,3.9,6,3.9,7,6.2,6
2014/5/12 7:17,4,6,4,6,6.8,5
2014/5/12 7:18,4.1,6,4.1,6,4.5,5
2014/5/12 7:19,4.1,6,4.1,6,5,6
2014/5/12 7:20,4.1,6,4.2,6,6.3,7
2014/5/12 7:21,4.3,6,4.3,6,9.7,6
2014/5/12 7:22,4.2,6,4.3,6,9.7,6
2014/5/12 7:23,4.2,6,4.3,6,9.3,6
2014/5/12 7:24,3.8,6,4.2,6,5.2,7
2014/5/12 7:25,3.7,6,3.8,6,4.3,6
2014/5/12 7:26,3.8,6,3.8,6,5.4,7
2014/5/12 7:27,3.6,6,3.7,6,5.4,4
2014/5/12 7:28,3.8,7,3.8,6,9.9,7
2014/5/12 7:29,4,7,4,6,6.4,7
2014/5/12 7:30,4.1,6,4.1,6,6,5
2014/5/12 7:31,4,7,4.1,6,9.9,7
2014/5/12 7:32,4.1,7,4.1,6,10.1,7
2014/5/12 7:33,4.1,7,4.1,6,9.4,6
2014/5/12 7:34,4.3,7,4.4,7,7.2,6
2014/5/12 7:35,4.4,7,4.5,7,6.7,7
2014/5/12 7:36,4.5,7,4.5,7,6.5,7
2014/5/12 7:37,4.5,7,4.6,7,6.7,7
2014/5/12 7:38,4.5,6,4.5,7,9,7
2014/5/12 7:39,4.8,6,4.8,6,10.7,6
2014/5/12 7:40,4.9,6,4.9,6,9.7,6
2014/5/12 7:41,5,6,5.1,6,7.5,5
2014/5/12 7:42,4.8,6,5,6,8.6,5
2014/5/12 7:43,4.6,6,4.8,6,6.8,6
2014/5/12 7:44,4.9,6,4.9,6,9.9,6
2014/5/12 7:45,5,6,5,6,7.9,5
2014/5/12 7:46,5.2,6,5.3,6,11.6,5
2014/5/12 7:47,5.5,6,5.5,6,9.9,6
2014/5/12 7:48,5.6,6,5.6,6,8.6,7
2014/5/12 7:49,5.3,6,5.5,6,9.7,6
2014/5/12 7:50,5.2,6,5.3,6,8.1,5
2014/5/12 7:51,5.5,6,5.5,6,11.6,7
2014/5/12 7:52,5.5,6,5.5,6,9.7,7
2014/5/12 7:53,5.6,6,5.6,6,7.7,5
2014/5/12 7:54,5.2,6,5.7,6,6.5,9
2014/5/12 7:55,5.3,6,5.3,6,8.4,8
2014/5/12 7:56,5,7,5.3,6,5.5,8
2014/5/12 7:57,5,7,5,6,9.2,6
2014/5/12 7:58,5,6,5,6,8.3,7
2014/5/12 7:59,5.1,6,5.2,6,11.4,5
2014/5/12 8:00,5.1,7,5.2,6,8.5,8
2014/5/12 8:01,4.9,7,5,6,8.2,6
2014/5/12 8:02,4.9,6,4.9,6,8.9,7
2014/5/12 8:03,5,7,5,6,9.9,7
2014/5/12 8:04,5.2,7,5.2,6,9,7
2014/5/12 8:05,5.1,7,5.3,7,8.7,7
2014/5/12 8:06,5.3,6,5.3,7,7.1,6
2014/5/12 8:07,5.1,6,5.3,7,8.4,5
2014/5/12 8:08,4.9,7,5,7,5.8,7
2014/5/12 8:09,4.8,6,5,7,6.8,7
2014/5/12 8:10,4.9,6,4.9,7,7.9,5
2014/5/12 8:11,4.9,6,5,7,9,4
2014/5/12 8:12,4.9,6,4.9,7,9.2,4
2014/5/12 8:13,4.9,6,5,7,10.9,6
2014/5/12 8:14,5,6,5,7,11.9,6
2014/5/12 8:15,5.1,6,5.1,6,9.5,6
2014/5/12 8:16,5.3,6,5.3,6,10.3,6
2014/5/12 8:17,5.4,6,5.4,6,8.4,6
2014/5/12 8:18,5.4,6,5.4,6,6.1,5
2014/5/12 8:19,5.4,6,5.4,6,6.2,6
2014/5/12 8:20,5.1,6,5.3,6,4.5,7
2014/5/12 8:21,5,6,5.1,6,7.1,7
2014/5/12 8:22,4.9,6,5,6,8.3,5
2014/5/12 8:23,4.6,6,4.9,6,6.3,6
2014/5/12 8:24,4.6,6,4.6,6,9,6
2014/5/12 8:25,4.5,6,4.6,6,7.7,5
2014/5/12 8:26,4.4,6,4.5,6,7.6,6
2014/5/12 8:27,4,6,4.3,6,3.8,5
2014/5/12 8:28,4,6,4.1,6,6.1,5
2014/5/12 8:29,4.1,6,4.1,6,7,5
2014/5/12 8:30,4.3,6,4.3,6,6.5,7
2014/5/12 8:31,4.3,6,4.4,6,7.5,5
2014/5/12 8:32,4.4,6,4.4,6,10.2,6
2014/5/12 8:33,4.4,6,4.4,6,7.2,6
2014/5/12 8:34,4.4,6,4.4,6,8.9,5
2014/5/12 8:35,4.5,6,4.5,6,8.5,6
2014/5/12 8:36,4.4,6,4.5,6,7.9,4
2014/5/12 8:37,4.7,6,4.7,6,6.9,6
2014/5/12 8:38,4.8,6,4.8,6,8.7,5
2014/5/12 8:39,4.9,6,4.9,6,9.3,7
2014/5/12 8:40,5,6,5.1,6,10.2,5
2014/5/12 8:41,5,6,5,6,8.7,5
2014/5/12 8:42,4.9,6,5,6,5.8,6
2014/5/12 8:43,4.9,6,4.9,6,6.5,6
2014/5/12 8:44,4.8,6,4.9,6,9.3,5
2014/5/12 8:45,4.6,6,4.8,6,9.8,7
2014/5/12 8:46,4.8,6,4.8,6,8.1,6
2014/5/12 8:47,4.9,6,4.9,6,10.8,6
2014/5/12 8:48,5.2,6,5.2,6,10.5,6
2014/5/12 8:49,5.2,6,5.3,6,8.7,5
2014/5/12 8:50,5.2,6,5.2,6,8.1,5
2014/5/12 8:51,5.1,6,5.2,6,7.9,8
2014/5/12 8:52,5.2,6,5.2,6,7.6,7
2014/5/12 8:53,5.3,6,5.3,6,8.4,6
2014/5/12 8:54,5.3,6,5.4,6,8.3,8
2014/5/12 8:55,5.2,6,5.3,6,6.8,6
2014/5/12 8:56,5.2,6,5.3,6,8.3,6
2014/5/12 8:57,4.9,6,5.2,6,7.9,8
2014/5/12 8:58,4.5,6,4.9,6,6.8,6
2014/5/12 8:59,4.3,6,4.5,6,5,7
2014/5/12 9:00,4.2,6,4.3,6,8.9,7
2014/5/12 9:01,4.1,6,4.3,6,7.2,6
2014/5/12 9:02,4.2,6,4.3,6,10.1,5
2014/5/12 9:03,4.2,6,4.3,6,5.8,6
2014/5/12 9:04,4.4,6,4.4,6,11,6
2014/5/12 9:05,4.5,6,4.5,6,9,6
2014/5/12 9:06,4.6,6,4.6,6,9.4,6
2014/5/12 9:07,4.6,6,4.6,6,6.9,6
2014/5/12 9:08,4.5,6,4.6,6,7,8
2014/5/12 9:09,4.5,6,4.6,6,7.6,6
2014/5/12 9:10,4.8,6,4.8,6,10.1,5
2014/5/12 9:11,5.1,6,5.1,6,9.2,7
2014/5/12 9:12,5,6,5.1,6,9.5,6
2014/5/12 9:13,5.2,6,5.2,6,8.7,6
2014/5/12 9:14,5,6,5.2,6,7.8,7
2014/5/12 9:15,5.2,6,5.2,6,9.5,5
2014/5/12 9:16,5.1,6,5.2,6,9.4,5
2014/5/12 9:17,5.1,6,5.1,6,6.9,6
2014/5/12 9:18,5.1,6,5.1,6,7.4,7
2014/5/12 9:19,5.2,6,5.2,6,7,5
2014/5/12 9:20,4.9,6,5.2,6,8.7,6
2014/5/12 9:21,4.8,6,4.8,6,7.4,4
2014/5/12 9:22,4.6,5,4.8,6,7,5
2014/5/12 9:23,4.6,5,4.6,6,8.4,6
2014/5/12 9:24,4.6,5,4.6,6,9.3,6
2014/5/12 9:25,4.5,6,4.6,6,7.9,6
2014/5/12 9:26,4.5,6,4.5,6,10.2,6
2014/5/12 9:27,4.9,6,4.9,6,11,6
2014/5/12 9:28,4.9,6,5,6,7.8,5
2014/5/12 9:29,4.7,6,4.9,6,5.6,5
2014/5/12 9:30,4.6,6,4.7,6,5.5,5
2014/5/12 9:31,4.5,6,4.6,6,7.8,7
2014/5/12 9:32,4.4,6,4.5,6,7,6
2014/5/12 9:33,4.4,6,4.5,6,8.6,6
2014/5/12 9:34,4.5,6,4.5,6,10.3,6
2014/5/12 9:35,4.7,6,4.7,6,10.8,6
2014/5/12 9:36,4.5,6,4.7,6,7.7,7
2014/5/12 9:37,4.5,6,4.5,6,11.1,7
2014/5/12 9:38,4.6,6,4.6,5,9.8,7
2014/5/12 9:39,5,6,5,6,9.2,6
2014/5/12 9:40,5.3,6,5.3,6,9.8,5
2014/5/12 9:41,5.5,6,5.5,6,8.9,4
2014/5/12 9:42,5.6,6,5.7,6,6.5,6
2014/5/12 9:43,5.8,6,5.8,6,11.8,7
2014/5/12 9:44,5.5,6,5.8,6,7.9,6
2014/5/12 9:45,5.3,6,5.4,6,7,6
2014/5/12 9:46,5.5,6,5.5,6,10.8,6
2014/5/12 9:47,5.3,6,5.5,6,7.6,8
2014/5/12 9:48,5.1,7,5.3,6,6.1,7
2014/5/12 9:49,4.8,7,5,6,6.1,6
2014/5/12 9:50,4.6,7,4.8,6,7.2,7
2014/5/12 9:51,4.8,7,4.8,6,9.1,6
2014/5/12 9:52,5,6,5,6,9.8,6
2014/5/12 9:53,4.9,6,5,6,8.7,5
2014/5/12 9:54,5,6,5,6,8.4,6
2014/5/12 9:55,5.1,6,5.1,6,7.6,6
2014/5/12 9:56,5.1,6,5.1,6,11.8,6
2014/5/12 9:57,5.3,6,5.4,6,11.5,6
2014/5/12 9:58,5.5,6,5.5,6,10.8,6
2014/5/12 9:59,5.5,6,5.5,6,8.1,6
2014/5/12 10:00,5.7,6,5.7,6,11.5,6
2014/5/12 10:01,5.7,6,5.7,6,8.9,5
2014/5/12 10:02,5.5,6,5.6,6,9.3,5
2014/5/12 10:03,5.6,6,5.6,6,9.4,5
2014/5/12 10:04,5.6,6,5.7,6,10,6
2014/5/12 10:05,5.8,6,5.8,6,8.6,5
2014/5/12 10:06,5.7,6,5.8,6,8.4,6
2014/5/12 10:07,5.5,6,5.6,6,8.2,7
2014/5/12 10:08,5.4,6,5.5,6,7.6,8
2014/5/12 10:09,5.3,6,5.4,6,6,7
2014/5/12 10:10,5.1,6,5.3,6,7.4,6
2014/5/12 10:11,4.9,6,5.1,6,8.5,4
2014/5/12 10:12,5.1,6,5.1,6,10.8,6
2014/5/12 10:13,5,6,5.2,6,10.1,6
2014/5/12 10:14,4.9,6,5,6,7.7,4
2014/5/12 10:15,4.9,6,5,6,10.1,5
2014/5/12 10:16,5,6,5,6,7.9,6
2014/5/12 10:17,4.8,6,5,6,5.6,7
2014/5/12 10:18,4.8,6,4.9,6,8.2,4
2014/5/12 10:19,5.1,6,5.1,6,7.8,7
2014/5/12 10:20,5.2,6,5.3,6,10.9,9
2014/5/12 10:21,5.2,6,5.2,6,8.5,5
2014/5/12 10:22,5.1,6,5.3,6,9.5,4
2014/5/12 10:23,4.9,6,5.1,6,4.8,4
2014/5/12 10:24,4.7,6,4.9,6,4.8,4
2014/5/12 10:25,4.4,6,4.7,6,3.6,4
2014/5/12 10:26,4,6,4.3,6,3.3,5
2014/5/12 10:27,4,6,4.1,6,6.8,5
2014/5/12 10:28,4.2,6,4.2,6,9.4,4
2014/5/12 10:29,4.1,6,4.2,6,8.7,5
2014/5/12 10:30,4,5,4.1,6,8.6,6
2014/5/12 10:31,4.1,5,4.1,6,9.7,5
2014/5/12 10:32,4.1,5,4.1,6,8.5,5
2014/5/12 10:33,4.3,6,4.3,6,9.4,5
2014/5/12 10:34,4.6,6,4.6,6,8.7,6
2014/5/12 10:35,4.9,6,4.9,6,8.7,6
2014/5/12 10:36,5,6,5.1,6,6.8,6
2014/5/12 10:37,5,6,5.1,6,6.2,6
2014/5/12 10:38,5,6,5.1,6,9.5,6
2014/5/12 10:39,5.2,6,5.2,6,10.5,5
2014/5/12 10:40,5.2,6,5.4,6,9.8,6
2014/5/12 10:41,4.9,6,5.1,6,4.2,5
2014/5/12 10:42,4.5,6,4.9,6,4.3,6
2014/5/12 10:43,4.4,6,4.5,6,8.6,7
2014/5/12 10:44,4.3,6,4.3,6,7.2,6
2014/5/12 10:45,4.3,6,4.3,6,9.1,6
2014/5/12 10:46,4.3,6,4.3,6,7.6,6
2014/5/12 10:47,4.4,6,4.4,6,10.1,8
2014/5/12 10:48,4.2,6,4.4,6,6.5,8
2014/5/12 10:49,3.9,6,4.1,6,6.1,5
2014/5/12 10:50,3.8,6,3.8,6,7.8,7
2014/5/12 10:51,4.2,6,4.2,6,9.8,7
2014/5/12 10:52,4.4,6,4.5,6,9.8,9
2014/5/12 10:53,4.5,6,4.5,6,7.6,7
2014/5/12 10:54,4.4,6,4.6,6,7.6,6
2014/5/12 10:55,4.2,6,4.4,6,6,5
2014/5/12 10:56,4.3,6,4.3,6,7.7,6
2014/5/12 10:57,4.2,6,4.3,6,6.3,5
2014/5/12 10:58,4.2,6,4.3,6,6.7,7
2014/5/12 10:59,4.4,6,4.4,6,7.9,5
2014/5/12 11:00,4.4,6,4.4,6,6.5,5
2014/5/12 11:01,4.3,6,4.4,6,8.3,5
2014/5/12 11:02,4.3,6,4.3,6,8.6,6
2014/5/12 11:03,4.4,6,4.4,6,9.9,6
2014/5/12 11:04,4.4,6,4.4,6,8.4,6
2014/5/12 11:05,4.8,6,4.8,6,10.5,6
2014/5/12 11:06,4.7,6,4.8,6,7.5,7
2014/5/12 11:07,4.9,6,4.9,6,9.5,5
2014/5/12 11:08,4.9,6,4.9,6,8.2,7
2014/5/12 11:09,5.1,6,5.1,6,10.9,5
2014/5/12 11:10,5.3,6,5.3,6,7.9,5
2014/5/12 11:11,5.5,6,5.5,6,11.5,7
2014/5/12 11:12,5.5,6,5.5,6,7.5,6
2014/5/12 11:13,5.7,6,5.7,6,9.9,6
2014/5/12 11:14,5.6,6,5.7,6,7.8,5
2014/5/12 11:15,5.5,6,5.6,6,9.5,7
2014/5/12 11:16,5.4,6,5.5,6,7.1,6
2014/5/12 11:17,5.2,6,5.4,6,5.8,6
2014/5/12 11:18,5.5,6,5.5,6,10.1,6
2014/5/12 11:19,5.2,6,5.5,6,7,7
2014/5/12 11:20,5.1,6,5.2,6,7.9,5
2014/5/12 11:21,4.9,6,5.1,6,7.5,5
2014/5/12 11:22,4.8,6,4.9,6,6.3,6
2014/5/12 11:23,4.4,6,4.8,6,4.9,6
2014/5/12 11:24,4.5,6,4.5,6,6.9,6
2014/5/12 11:25,4.4,6,4.5,6,9.4,6
2014/5/12 11:26,4.6,6,4.6,6,10.3,6
2014/5/12 11:27,4.7,6,4.7,6,7.8,6
2014/5/12 11:28,4.5,6,4.7,6,7.4,7
2014/5/12 11:29,4.3,6,4.5,6,6.9,8
2014/5/12 11:30,4.3,6,4.3,6,7.7,5
2014/5/12 11:31,4.3,6,4.3,6,8.9,5
2014/5/12 11:32,4.3,6,4.3,6,7.2,6
2014/5/12 11:33,4.4,6,4.4,6,5.1,7
2014/5/12 11:34,4.5,6,4.5,6,8.2,6
2014/5/12 11:35,4.4,6,4.6,6,6.9,6
2014/5/12 11:36,4.4,6,4.4,6,9.4,7
2014/5/12 11:37,4.4,6,4.5,6,9.5,7
2014/5/12 11:38,4.2,6,4.3,6,4.8,7
2014/5/12 11:39,4.2,6,4.2,6,5.5,6
2014/5/12 11:40,4.2,6,4.2,6,6.5,7
2014/5/12 11:41,3.9,6,4.1,6,5.5,7
2014/5/12 11:42,3.9,6,3.9,6,6.4,5
2014/5/12 11:43,3.9,6,4,6,6.8,7
2014/5/12 11:44,3.8,6,3.9,6,6.8,5
2014/5/12 11:45,3.8,6,3.8,6,5.4,6
2014/5/12 11:46,3.7,6,3.8,6,9.5,7
2014/5/12 11:47,3.7,6,3.7,6,7.9,6
2014/5/12 11:48,4,6,4,6,10.1,6
2014/5/12 11:49,4.3,6,4.3,6,9.2,6
2014/5/12 11:50,4.5,6,4.5,6,7,6